Regional Weather Roundup
Issued by NWS

Home | Current Version | Previous Version | Text Only | Print | Product List | Glossary Off
Versions: 1 2 3 4 5 6 7 8 9 10 11 12 13 14 15 16 17 18 19 20 21 22 23 24 25 26 27 28 29 30 31 32 33 34 35 36 37 38 39 40 41 42 43 44 45 46 47 48 49 50

146
ASUS45 KSLC 101210
RWRUT

UTAH REGIONAL WEATHER ROUNDUP
NATIONAL WEATHER SERVICE SALT LAKE CITY UT
500 AM MST WED FEB 10 2016

UTZ001>011-023>025-101300-

NORTHERN UTAH

CITY           SKY/WX    TMP DP  RH WIND       PRES   REMARKS
BRIGHAM CITY   CLOUDY    13   9  87 CALM      30.47S VSB<1/4
HILL AFB       PTCLDY    23  21  91 SE7       30.44R WCI  15
LOGAN          SNOW       4   2  91 NW3       30.47R VSB 1/4
OGDEN          CLOUDY    26  24  92 S3        30.44S
PROVO AIRPORT    N/A    N/A N/A N/A CALM      30.45R VSB<1/4
SALT LAKE CITY FOG       29  27  92 CALM      30.46S VSB 1/2
VERNAL         CLOUDY     9   6  88 VRB3      30.47S FOG
WENDOVER       CLOUDY    28  27  93 S3        30.47R
HEBER CITY     FOG        5   1  85 CALM      30.43R VSB<1/4
WEST JORDAN    CLOUDY    25  25 100 CALM      30.46R VSB 1/4

$$

UTZ012>022-026-027-101300-

SOUTHERN/CENTRAL UTAH

CITY           SKY/WX    TMP DP  RH WIND       PRES   REMARKS
BLANDING       PTCLDY    27  17  66 CALM      30.49S
BRYCE CANYON   PTCLDY    12   3  67 VRB3      30.45F
CEDAR CITY     PTCLDY    13  10  88 CALM      30.40R FOG
DELTA          CLOUDY     7   5  90 CALM      30.45S VSB 1/4
HANKSVILLE     CLOUDY    23  21  93 CALM      30.48S
MILFORD        FOG        5   1  83 SW5       30.43S VSB 1/2 WCI  -4
MOAB/CYNLANDS  MOCLDY    20  18  92 CALM      30.45R
PRICE          PTCLDY    22  15  75 N6        30.41S WCI  14
ST GEORGE      MOSUNNY   39  23  52 CALM      30.39R
KANAB          CLEAR     32  27  80 NE7       30.43R WCI  26

$$

REGIONAL REPORTS     COLORADO/ARIZONA

CITY           SKY/WX    TMP DP  RH WIND       PRES   REMARKS
CRAIG, CO      FOG       -2  -6  83 CALM      30.46R VSB 1/4
GRAND JUNCTION CLOUDY    21  19  92 E7        30.45R WCI  12
RIFLE          CLOUDY    15   9  76 SE5       30.49S WCI   8
MONTROSE       CLOUDY    20  12  71 SE9       30.48S WCI   9
CORTEZ         CLOUDY    17  13  84 CALM      30.44R
PAGE, AZ       PTCLDY    33  26  75 CALM      30.41S
GRAND CANYON   PTCLDY    25  17  72 NE12      30.41F WCI  14
KINGMAN        PTCLDY    39  23  52 E7        30.28S WCI  34
FLAGSTAFF      CLEAR     22  13  68 CALM      30.43R

$$

REGIONAL REPORTS    NEVADA/IDAHO/WYOMING

CITY           SKY/WX    TMP DP  RH WIND       PRES   REMARKS
LAS VEGAS, NV  MOCLDY    50  28  42 SW3       30.25R
ELY            CLOUDY     9   2  73 S16       30.42R WCI  -8
ELKO           CLOUDY     7   3  84 NE5       30.45S WCI  -2
POCATELLO, ID  CLOUDY    14  11  87 NE5       30.42S WCI   6
BURLEY         PTCLDY    22  21  96 CALM      30.37S
EVANSTON, WY   CLOUDY    25  14  63 S10       30.39S WCI  15
ROCK SPRINGS   CLOUDY    30  17  58 SW5       30.36S WCI  25

$$




USA.gov is the U.S. government's official web portal to all federal, state and local government web resources and services.